Location: ?????????
(54.7630°N, 39.4991°E)
Time: 06:10:14
(UTC+00:00)

ATLAS 3B R/B - Pass Details

Date: 14 April 2026
Orbit: 937 x 1257 km, 63.8° (Epoch: 12 May)

Event Time Altitude Azimuth Distance (km) Brightness Sun altitude
Rises 17:57:45 0° 256° (WSW) 4,146 6.4 -12.8°
Reaches altitude 10° 18:00:36 10° 262° (W) 3,207 5.8 -13.1°
Maximum altitude 18:08:14 53° 338° (NNW) 1,510 3.8 -13.9°
Drops below altitude 10° 18:15:55 10° 55° (NE) 3,226 5.1 -14.8°
Sets 18:18:48 0° 60° (ENE) 4,172 5.6 -15.1°
